SDM572 UUEE-EVRA

Flight info

Callsign SDM572
Flight time 1h 27m
Altitude 34000
Route TOKNU3J TOKNU T288 STAPA M869 OPOKA/N0433F340 M869 BARVA
Aircraft A319/M-SDE3FGHIRWY/LB1

Departure

Time 2026-05-04 13:59
Airport Sheremetyevo International Airport (UUEE)

Arrival

Time 2026-05-04 15:27
Airport Riga International Airport (EVRA)
Time Latitude Longitude Altitude Speed Heading
2026-05-04 13:41 55.97839 37.41634 640 ft 0 kts 75°
2026-05-04 13:52 55.97837 37.41619 641 ft 4 kts 77°
2026-05-04 13:52 55.97834 37.41572 642 ft 4 kts 101°
2026-05-04 13:52 55.97845 37.41537 640 ft 3 kts 160°
2026-05-04 13:53 55.97848 37.41534 643 ft 0 kts 165°
2026-05-04 13:55 55.97830 37.41543 642 ft 5 kts 165°
2026-05-04 13:56 55.97775 37.41569 639 ft 11 kts 165°
2026-05-04 13:56 55.97684 37.41585 641 ft 16 kts 181°
2026-05-04 13:56 55.97646 37.41930 639 ft 18 kts 75°
2026-05-04 13:57 55.97680 37.42154 642 ft 20 kts 75°
2026-05-04 13:57 55.97717 37.42406 639 ft 21 kts 75°
2026-05-04 13:58 55.97724 37.42794 642 ft 4 kts 154°
2026-05-04 13:58 55.97616 37.42823 642 ft 12 kts 216°
2026-05-04 13:58 55.97580 37.42674 640 ft 15 kts 255°
2026-05-04 13:59 55.97533 37.42358 643 ft 56 kts 255°
2026-05-04 13:59 55.97368 37.41257 642 ft 123 kts 255°
2026-05-04 13:59 55.96814 37.37564 1432 ft 161 kts 252°
2026-05-04 14:00 55.96282 37.35788 2059 ft 171 kts 237°
2026-05-04 14:00 55.94695 37.31900 2851 ft 216 kts 234°
2026-05-04 14:00 55.93791 37.29722 3651 ft 222 kts 236°
2026-05-04 14:01 55.92876 37.27484 4595 ft 223 kts 236°
2026-05-04 14:01 55.91968 37.25227 5523 ft 226 kts 238°
2026-05-04 14:01 55.91545 37.19520 6725 ft 256 kts 294°
2026-05-04 14:02 55.92619 37.16967 7607 ft 263 kts 311°
2026-05-04 14:02 55.93870 37.14638 8540 ft 266 kts 312°
2026-05-04 14:02 55.95165 37.12263 9478 ft 269 kts 313°
2026-05-04 14:02 55.96485 37.09850 10301 ft 276 kts 312°
2026-05-04 14:03 55.97872 37.07301 10762 ft 294 kts 312°
2026-05-04 14:03 55.99309 37.04652 11502 ft 301 kts 311°
2026-05-04 14:03 56.00775 37.01945 12309 ft 305 kts 311°
2026-05-04 14:03 56.02264 36.99198 13130 ft 309 kts 311°
2026-05-04 14:04 56.05294 36.93588 14618 ft 317 kts 311°
2026-05-04 14:04 56.06815 36.90762 15318 ft 321 kts 311°
2026-05-04 14:04 56.08375 36.87860 15749 ft 325 kts 311°
2026-05-04 14:05 56.11504 36.82031 15852 ft 324 kts 311°
2026-05-04 14:05 56.13065 36.79112 15849 ft 324 kts 311°
2026-05-04 14:05 56.14625 36.76188 15865 ft 324 kts 311°
2026-05-04 14:06 56.16184 36.73268 15861 ft 324 kts 311°
2026-05-04 14:06 56.17747 36.70341 15858 ft 325 kts 311°
2026-05-04 14:06 56.19309 36.67404 15851 ft 325 kts 311°
2026-05-04 14:06 56.20841 36.64519 15841 ft 324 kts 311°
2026-05-04 14:07 56.22408 36.61584 15883 ft 326 kts 312°
2026-05-04 14:07 56.24056 36.58679 16320 ft 338 kts 314°
2026-05-04 14:07 56.25781 36.55764 16976 ft 343 kts 314°
2026-05-04 14:07 56.27541 36.52840 17657 ft 346 kts 315°
2026-05-04 14:08 56.29323 36.49885 18303 ft 350 kts 314°
2026-05-04 14:08 56.31120 36.46884 18907 ft 354 kts 314°
2026-05-04 14:08 56.32924 36.43849 19510 ft 357 kts 314°
2026-05-04 14:08 56.34582 36.40590 20079 ft 357 kts 304°
2026-05-04 14:09 56.36562 36.32436 21268 ft 359 kts 279°
2026-05-04 14:09 56.36900 36.27950 21860 ft 362 kts 276°
2026-05-04 14:10 56.37525 36.18858 23039 ft 368 kts 276°
2026-05-04 14:10 56.37842 36.14238 23586 ft 372 kts 276°
2026-05-04 14:10 56.38159 36.09602 24054 ft 374 kts 276°
2026-05-04 14:10 56.38477 36.04931 24530 ft 377 kts 276°
2026-05-04 14:11 56.38791 36.00288 24969 ft 380 kts 276°
2026-05-04 14:11 56.39431 35.90761 25874 ft 385 kts 276°
2026-05-04 14:11 56.39752 35.85932 26317 ft 387 kts 276°
2026-05-04 14:12 56.40069 35.81098 26749 ft 390 kts 276°
2026-05-04 14:12 56.40388 35.76218 27181 ft 392 kts 276°
2026-05-04 14:12 56.41020 35.66372 28039 ft 397 kts 276°
2026-05-04 14:13 56.41340 35.61388 28460 ft 400 kts 276°
2026-05-04 14:13 56.41657 35.56457 28908 ft 402 kts 276°
2026-05-04 14:13 56.41981 35.51436 29342 ft 404 kts 276°
2026-05-04 14:13 56.42307 35.46382 29752 ft 406 kts 276°
2026-05-04 14:14 56.42631 35.41298 30104 ft 409 kts 276°
2026-05-04 14:14 56.43273 35.31052 30747 ft 413 kts 276°
2026-05-04 14:14 56.43592 35.25875 31074 ft 415 kts 276°
2026-05-04 14:15 56.44226 35.15452 31783 ft 417 kts 276°
2026-05-04 14:15 56.44844 35.05049 32673 ft 415 kts 277°
2026-05-04 14:16 56.45919 34.94924 33541 ft 413 kts 289°
2026-05-04 14:16 56.47049 34.90150 33779 ft 412 kts 294°
2026-05-04 14:17 56.49416 34.80996 33809 ft 394 kts 294°
2026-05-04 14:17 56.50561 34.76554 33805 ft 392 kts 294°
2026-05-04 14:18 56.53975 34.63167 33804 ft 391 kts 294°
2026-05-04 14:19 56.58508 34.45249 33814 ft 391 kts 293°
2026-05-04 14:19 56.60774 34.36296 33823 ft 390 kts 293°
2026-05-04 14:20 56.63020 34.27340 33819 ft 389 kts 293°
2026-05-04 14:20 56.65233 34.18444 33804 ft 389 kts 292°
2026-05-04 14:21 56.66501 34.08978 33805 ft 387 kts 275°
2026-05-04 14:21 56.66739 34.04113 33802 ft 387 kts 275°
2026-05-04 14:21 56.67234 33.94382 33789 ft 386 kts 275°
2026-05-04 14:22 56.67725 33.84654 33806 ft 386 kts 275°
2026-05-04 14:22 56.68203 33.75007 33807 ft 385 kts 275°
2026-05-04 14:23 56.68890 33.60439 33791 ft 385 kts 275°
2026-05-04 14:24 56.69332 33.50732 33784 ft 385 kts 275°
2026-05-04 14:24 56.69774 33.41024 33785 ft 385 kts 275°
2026-05-04 14:25 56.70209 33.31374 33785 ft 385 kts 274°
2026-05-04 14:25 56.70854 33.16805 33808 ft 385 kts 274°
2026-05-04 14:26 56.71280 33.07103 33803 ft 384 kts 274°
2026-05-04 14:26 56.71681 32.97479 33797 ft 384 kts 274°
2026-05-04 14:27 56.72080 32.87793 33792 ft 383 kts 274°
2026-05-04 14:27 56.72475 32.78115 33789 ft 383 kts 274°
2026-05-04 14:28 56.72862 32.68440 33785 ft 383 kts 274°
2026-05-04 14:28 56.73247 32.58764 33785 ft 383 kts 274°
2026-05-04 14:29 56.73976 32.39489 33775 ft 383 kts 273°
2026-05-04 14:30 56.74334 32.29810 33778 ft 383 kts 273°
2026-05-04 14:31 56.74855 32.15353 33782 ft 383 kts 273°
2026-05-04 14:32 56.75522 31.95980 33777 ft 383 kts 272°
2026-05-04 14:32 56.75843 31.86270 33795 ft 384 kts 272°
2026-05-04 14:33 56.76161 31.76573 33790 ft 383 kts 272°
2026-05-04 14:33 56.76464 31.66943 33790 ft 383 kts 272°
2026-05-04 14:34 56.76763 31.57250 33778 ft 383 kts 272°
2026-05-04 14:34 56.77054 31.47566 33778 ft 382 kts 272°
2026-05-04 14:35 56.77334 31.37885 33767 ft 383 kts 272°
2026-05-04 14:35 56.77607 31.28263 33769 ft 383 kts 272°
2026-05-04 14:36 56.77872 31.18583 33771 ft 382 kts 271°
2026-05-04 14:36 56.78139 31.08899 33764 ft 382 kts 272°
2026-05-04 14:37 56.78450 30.99217 33766 ft 382 kts 272°
2026-05-04 14:37 56.78754 30.89600 33767 ft 382 kts 272°
2026-05-04 14:38 56.79047 30.79920 33760 ft 382 kts 271°
2026-05-04 14:38 56.79320 30.70236 33768 ft 382 kts 271°
2026-05-04 14:39 56.79389 30.60540 33777 ft 382 kts 268°
2026-05-04 14:39 56.79302 30.50864 33790 ft 381 kts 267°
2026-05-04 14:40 56.79199 30.36473 33778 ft 379 kts 268°
2026-05-04 14:40 56.79147 30.26853 33775 ft 379 kts 268°
2026-05-04 14:41 56.79094 30.17240 33774 ft 379 kts 268°
2026-05-04 14:42 56.78986 29.98029 33747 ft 379 kts 268°
2026-05-04 14:42 56.78915 29.88492 33750 ft 379 kts 268°
2026-05-04 14:43 56.78833 29.78878 33752 ft 379 kts 267°
2026-05-04 14:43 56.78745 29.69265 33755 ft 379 kts 267°
2026-05-04 14:44 56.78651 29.59644 33756 ft 379 kts 267°
2026-05-04 14:44 56.78553 29.50093 33749 ft 379 kts 267°
2026-05-04 14:45 56.78446 29.40476 33752 ft 379 kts 267°
2026-05-04 14:45 56.78335 29.30857 33755 ft 379 kts 267°
2026-05-04 14:46 56.78213 29.21238 33778 ft 379 kts 266°
2026-05-04 14:46 56.78079 29.11650 33775 ft 378 kts 266°
2026-05-04 14:47 56.77926 29.02165 33775 ft 377 kts 266°
2026-05-04 14:47 56.77730 28.92623 33760 ft 376 kts 266°
2026-05-04 14:48 56.77520 28.83102 33737 ft 376 kts 265°
2026-05-04 14:48 56.77303 28.73569 33738 ft 376 kts 265°
2026-05-04 14:49 56.77086 28.64109 33728 ft 376 kts 265°
2026-05-04 14:49 56.76867 28.54582 33757 ft 376 kts 265°
2026-05-04 14:50 56.76645 28.45068 33768 ft 375 kts 265°
2026-05-04 14:50 56.76410 28.35589 33756 ft 374 kts 265°
2026-05-04 14:51 56.76164 28.26199 33751 ft 373 kts 265°
2026-05-04 14:51 56.75910 28.16754 33748 ft 373 kts 265°
2026-05-04 14:52 56.75659 28.07321 33745 ft 373 kts 265°
2026-05-04 14:52 56.75390 27.97897 33743 ft 372 kts 264°
2026-05-04 14:53 56.75251 27.88526 33760 ft 375 kts 271°
2026-05-04 14:53 56.75755 27.79074 33756 ft 374 kts 272°
2026-05-04 14:54 56.76237 27.69684 33729 ft 374 kts 271°
2026-05-04 14:54 56.76711 27.60256 33723 ft 374 kts 271°
2026-05-04 14:55 56.77187 27.50815 33719 ft 374 kts 271°
2026-05-04 14:55 56.77654 27.41435 33727 ft 374 kts 271°
2026-05-04 14:56 56.78118 27.31988 33657 ft 376 kts 271°
2026-05-04 14:56 56.78346 27.27262 33378 ft 374 kts 271°
2026-05-04 14:56 56.78568 27.22584 33031 ft 368 kts 271°
2026-05-04 14:57 56.78787 27.17962 32598 ft 363 kts 271°
2026-05-04 14:57 56.78998 27.13464 32182 ft 358 kts 270°
2026-05-04 14:57 56.79209 27.08969 31763 ft 353 kts 270°
2026-05-04 14:57 56.79413 27.04528 31363 ft 349 kts 270°
2026-05-04 14:58 56.79613 27.00140 30958 ft 345 kts 270°
2026-05-04 14:58 56.79809 26.95807 30561 ft 342 kts 270°
2026-05-04 14:58 56.80005 26.91501 30176 ft 339 kts 270°
2026-05-04 14:58 56.80131 26.88671 29931 ft 337 kts 270°
2026-05-04 14:59 56.80384 26.83002 29390 ft 332 kts 270°
2026-05-04 14:59 56.80570 26.78829 29037 ft 328 kts 270°
2026-05-04 14:59 56.80925 26.70706 28341 ft 319 kts 270°
2026-05-04 15:00 56.81100 26.66704 28004 ft 313 kts 270°
2026-05-04 15:00 56.81270 26.62778 27704 ft 308 kts 270°
2026-05-04 15:00 56.81431 26.58915 27350 ft 304 kts 269°
2026-05-04 15:01 56.81742 26.51297 26684 ft 299 kts 270°
2026-05-04 15:01 56.81895 26.47565 26313 ft 298 kts 270°
2026-05-04 15:01 56.82051 26.43802 25946 ft 296 kts 270°
2026-05-04 15:01 56.82206 26.40066 25578 ft 295 kts 270°
2026-05-04 15:02 56.82359 26.36336 25204 ft 293 kts 270°
2026-05-04 15:02 56.82508 26.32629 24829 ft 292 kts 270°
2026-05-04 15:02 56.82655 26.28940 24441 ft 291 kts 270°
2026-05-04 15:02 56.82800 26.25269 24051 ft 290 kts 270°
2026-05-04 15:03 56.82942 26.21604 23661 ft 288 kts 270°
2026-05-04 15:03 56.83081 26.18014 23266 ft 287 kts 270°
2026-05-04 15:03 56.83224 26.14384 22831 ft 285 kts 270°
2026-05-04 15:03 56.83363 26.10787 22465 ft 283 kts 270°
2026-05-04 15:04 56.83500 26.07220 22089 ft 281 kts 270°
2026-05-04 15:04 56.83634 26.03672 21718 ft 280 kts 270°
2026-05-04 15:04 56.83767 26.00128 21373 ft 278 kts 270°
2026-05-04 15:04 56.83897 25.96643 20999 ft 276 kts 270°
2026-05-04 15:05 56.84026 25.93163 20638 ft 274 kts 270°
2026-05-04 15:05 56.84154 25.89703 20287 ft 272 kts 270°
2026-05-04 15:05 56.84279 25.86330 19945 ft 270 kts 270°
2026-05-04 15:05 56.84406 25.82919 19606 ft 269 kts 270°
2026-05-04 15:06 56.84533 25.79522 19252 ft 267 kts 270°
2026-05-04 15:06 56.84655 25.76139 18914 ft 266 kts 270°
2026-05-04 15:06 56.84773 25.72764 18570 ft 265 kts 270°
2026-05-04 15:07 56.85000 25.66050 17870 ft 264 kts 270°
2026-05-04 15:07 56.85113 25.62713 17537 ft 262 kts 270°
2026-05-04 15:07 56.85226 25.59399 17193 ft 261 kts 270°
2026-05-04 15:07 56.85340 25.56144 16872 ft 259 kts 270°
2026-05-04 15:08 56.85582 25.52880 16553 ft 261 kts 277°
2026-05-04 15:08 56.85944 25.49645 16231 ft 259 kts 277°
2026-05-04 15:08 56.86299 25.46418 15914 ft 259 kts 277°
2026-05-04 15:08 56.86652 25.43191 15598 ft 259 kts 277°
2026-05-04 15:09 56.87004 25.39969 15312 ft 259 kts 277°
2026-05-04 15:09 56.87355 25.36746 14984 ft 258 kts 277°
2026-05-04 15:09 56.87704 25.33522 14668 ft 258 kts 277°
2026-05-04 15:10 56.88391 25.27149 14050 ft 257 kts 277°
2026-05-04 15:10 56.88736 25.23951 13736 ft 256 kts 277°
2026-05-04 15:10 56.89417 25.17570 13076 ft 254 kts 276°
2026-05-04 15:11 56.89755 25.14407 12753 ft 252 kts 276°
2026-05-04 15:11 56.90091 25.11266 12444 ft 251 kts 276°
2026-05-04 15:11 56.90434 25.08151 12132 ft 249 kts 277°
2026-05-04 15:11 56.90800 25.05106 11827 ft 248 kts 278°
2026-05-04 15:12 56.91186 25.02003 11509 ft 246 kts 278°
2026-05-04 15:12 56.91562 24.98995 11199 ft 245 kts 278°
2026-05-04 15:12 56.91940 24.95965 10882 ft 243 kts 278°
2026-05-04 15:12 56.92316 24.92935 10564 ft 250 kts 278°
2026-05-04 15:13 56.92699 24.89786 10222 ft 255 kts 278°
2026-05-04 15:13 56.93083 24.86603 9874 ft 255 kts 278°
2026-05-04 15:13 56.93465 24.83440 9518 ft 254 kts 278°
2026-05-04 15:13 56.93844 24.80286 9171 ft 253 kts 278°
2026-05-04 15:14 56.94215 24.77190 8836 ft 251 kts 278°
2026-05-04 15:14 56.94586 24.74078 8490 ft 249 kts 278°
2026-05-04 15:14 56.94952 24.70982 8149 ft 247 kts 278°
2026-05-04 15:14 56.95311 24.67953 7943 ft 239 kts 278°
2026-05-04 15:15 56.95657 24.65049 7780 ft 229 kts 278°
2026-05-04 15:15 56.95991 24.62238 7579 ft 223 kts 278°
2026-05-04 15:15 56.96325 24.59467 7454 ft 223 kts 278°
2026-05-04 15:16 56.97053 24.53955 6949 ft 221 kts 279°
2026-05-04 15:16 56.97420 24.51226 6636 ft 220 kts 279°
2026-05-04 15:16 56.98135 24.45845 5982 ft 217 kts 279°
2026-05-04 15:17 56.98489 24.43170 5666 ft 216 kts 279°
2026-05-04 15:17 56.99188 24.37852 5030 ft 215 kts 279°
2026-05-04 15:17 56.99540 24.35190 4714 ft 214 kts 279°
2026-05-04 15:18 56.99888 24.32536 4399 ft 214 kts 279°
2026-05-04 15:18 57.00234 24.29886 4132 ft 212 kts 279°
2026-05-04 15:18 57.00574 24.27244 3926 ft 214 kts 279°
2026-05-04 15:19 57.00773 24.25702 3763 ft 215 kts 279°
2026-05-04 15:19 57.01001 24.23912 3636 ft 211 kts 280°
2026-05-04 15:19 57.01544 24.19805 3522 ft 191 kts 283°
2026-05-04 15:20 57.01781 24.18702 3501 ft 192 kts 292°
2026-05-04 15:20 57.02922 24.16198 3364 ft 198 kts 314°
2026-05-04 15:20 57.03972 24.14551 3255 ft 198 kts 313°
2026-05-04 15:21 57.05016 24.12895 3159 ft 198 kts 313°
2026-05-04 15:21 57.06058 24.11236 3061 ft 198 kts 313°
2026-05-04 15:21 57.08132 24.07931 2854 ft 197 kts 313°
2026-05-04 15:22 57.09167 24.06280 2759 ft 197 kts 312°
2026-05-04 15:22 57.09767 24.05062 2683 ft 191 kts 294°
2026-05-04 15:22 57.09105 24.00241 2455 ft 190 kts 213°
2026-05-04 15:23 57.07795 23.99670 2345 ft 199 kts 187°
2026-05-04 15:23 57.06408 23.99493 2226 ft 200 kts 191°
2026-05-04 15:23 57.05507 23.99327 2167 ft 195 kts 191°
2026-05-04 15:23 57.03792 23.99026 2030 ft 176 kts 192°
2026-05-04 15:24 57.01814 23.98690 1695 ft 165 kts 192°
2026-05-04 15:24 56.99499 23.98309 1235 ft 129 kts 193°
2026-05-04 15:25 56.98902 23.98206 1125 ft 127 kts 194°
2026-05-04 15:25 56.98032 23.98060 954 ft 124 kts 194°
2026-05-04 15:25 56.97185 23.97893 757 ft 123 kts 194°
2026-05-04 15:26 56.95510 23.97692 466 ft 120 kts 191°
2026-05-04 15:26 56.94684 23.97485 326 ft 124 kts 189°
2026-05-04 15:26 56.93020 23.97228 45 ft 103 kts 187°
2026-05-04 15:27 56.92592 23.97148 45 ft 35 kts 185°
2026-05-04 15:27 56.92439 23.97202 44 ft 0 kts 94°
2026-05-04 15:28 56.92516 23.97314 44 ft 16 kts 34°
2026-05-04 15:28 56.92609 23.97460 44 ft 18 kts 73°
2026-05-04 15:28 56.92678 23.97757 43 ft 15 kts 347°
2026-05-04 15:29 56.92698 23.97669 44 ft 6 kts 275°
2026-05-04 15:30 56.92698 23.97666 44 ft 0 kts 275°